User: anonymous   Login
Location: Wawayanda State Park
(41.1833°N, 74.4333°W)
Time: 22:40:45
(UTC-04:00)
Language:

RESURS DK-1 - Orbit

View from above orbital plane
View from above orbital plane
View from above satellite
View from above satellite

Ground track
Ground track

The orbit data is extracted from the following two-line orbital elements,

1 29228U 06021A   16177.78372649  .00000158  00000-0  19498-4 0  9999
2 29228  69.9365 284.6965 0005803 196.5943 285.4977 15.01929952554588
Epoch (UTC): 25 June 2016 18:48:33
Eccentricity: 0.0005803
inclination: 69.9365°
perigee height: 557 km
apogee height: 565 km
right ascension of ascending node: 284.6965°
argument of perigee: 196.5943°
revolutions per day: 15.01929952
mean anomaly at epoch: 285.4977°
orbit number at epoch: 55458

The dashed part of the orbit path shows where the satellite is in the earth's shadow,  

DLR